| Date | Time | Temp. (oF) | Dew Point (oF) | Rel. Hum. (%) | Press. (in.) | Wind Dir. | Wind Speed (mph) | Hourly Rainfall (in.) |
|
|---|---|---|---|---|---|---|---|---|---|
| 1 | 02/02 | 00:00 | 36 | 25 | 65 | 30.04 | NW | 2 | 0.00 |
| 2 | 02/01 | 23:00 | 38 | 25 | 61 | 30.06 | NW | 2 | 0.00 |
| 3 | 02/01 | 22:00 | 39 | 25 | 57 | 30.05 | NW | 4 | 0.00 |
| 4 | 02/01 | 21:00 | 40 | 25 | 57 | 30.05 | NW | 6 | 0.00 |
| 5 | 02/01 | 20:00 | 40 | 26 | 58 | 30.04 | WNW | 4 | 0.00 |
| 6 | 02/01 | 19:00 | 41 | 26 | 57 | 30.03 | NW | 5 | 0.00 |
| 7 | 02/01 | 18:00 | 43 | 29 | 59 | 30.02 | NW | 5 | 0.00 |
| 8 | 02/01 | 17:00 | 43 | 28 | 57 | 29.97 | NW | 6 | 0.00 |
| 9 | 02/01 | 16:00 | 45 | 29 | 55 | 29.95 | NW | 3 | 0.00 |
| 10 | 02/01 | 15:00 | 45 | 29 | 54 | 29.93 | NW | 5 | 0.00 |
| 11 | 02/01 | 14:00 | 45 | 28 | 53 | 29.92 | NW | 6 | 0.00 |
| 12 | 02/01 | 13:00 | 45 | 28 | 53 | 29.92 | NW | 7 | 0.00 |
| 13 | 02/01 | 12:00 | 45 | 30 | 56 | 29.93 | NW | 12 | 0.00 |
| 14 | 02/01 | 11:00 | 44 | 28 | 54 | 29.96 | NW | 6 | 0.00 |
| 15 | 02/01 | 10:00 | 46 | 29 | 52 | 29.96 | NW | 11 | 0.00 |
| 16 | 02/01 | 09:00 | 41 | 28 | 60 | 29.96 | NW | 4 | 0.00 |
| 17 | 02/01 | 08:00 | 36 | 25 | 65 | 29.95 | NW | 4 | 0.00 |
| 18 | 02/01 | 07:00 | 38 | 24 | 59 | 29.93 | NW | 3 | 0.00 |
| 19 | 02/01 | 06:00 | 38 | 24 | 57 | 29.92 | NW | 5 | 0.00 |
| 20 | 02/01 | 05:00 | 39 | 25 | 58 | 29.91 | NW | 7 | 0.00 |
| 21 | 02/01 | 04:00 | 38 | 26 | 63 | 29.89 | NW | 8 | 0.00 |
| 22 | 02/01 | 03:00 | 39 | 27 | 63 | 29.88 | NW | 3 | 0.00 |
| 23 | 02/01 | 02:00 | 39 | 27 | 64 | 29.86 | NW | 4 | 0.00 |
| 24 | 02/01 | 01:00 | 39 | 27 | 63 | 29.85 | NW | 4 | 0.00 |